[[{"header":{"parameterUnit":"m.s-1","parameterCategory":1,"la1":30.2991,"la2":30.254,"lo1":-89.0895,"lo2":-89.0444,"dy":0.0017,"dx":0.0017,"nx":28,"ny":28,"refTime":"2024-04-17T21:00:00:Z","depth":0,"parameterNumber":2,"parameterNumberName":"U-component_of_WINDS"},"data":[0,0,0,0,0,0,0,0,0,0,0,0,0,0,0,0,0,0,0,0,0,0,0,0,0,0,0,0,0,0,0,0,0,0,0,0,0,0,0,0,0,0,0,0,0,0,0,0,0,0,0,0,0,0,0,0,0,0,-0.829,-0.829,0,-0.8297,-0.8298,-0.8298,-0.8273,-0.8272,-0.8271,-0.8271,-0.8281,-0.8281,-0.8282,0,0,0,0,0,0,0,0,0,0,0,0,0,-0.8258,-0.8258,-0.829,-0.829,-0.829,-0.8297,-0.8298,-0.8298,-0.8273,-0.8272,-0.8271,-0.827,-0.828,-0.8281,-0.8282,0,0,0,0,0,0,0,0,0,0,0,0,0,-0.8269,-0.8259,-0.829,-0.8279,-0.8278,-0.8297,-0.8298,-0.8298,-0.8273,-0.8272,-0.8271,-0.827,-0.828,-0.8281,-0.8283,-0.8314,0,0,-0.8287,-0.8288,0,0,0,0,0,0,0,0,-0.8269,-0.827,-0.828,-0.828,-0.8279,-0.8283,-0.829,-0.8303,-0.8274,-0.8275,-0.8271,-0.8269,-0.8282,-0.8284,-0.8288,-0.8315,-0.8315,-0.8287,-0.8288,-0.8289,-0.8289,0,0,0,0,0,0,0,-0.8268,-0.827,-0.8293,-0.8281,-0.828,-0.8274,-0.8275,-0.8292,-0.8285,-0.8275,-0.8273,-0.8274,-0.8282,-0.8286,-0.8288,-0.8315,-0.8287,-0.8288,-0.8289,-0.829,-0.837,-0.8371,0,0,0,0,0,0,-0.8268,-0.8269,-0.8293,-0.8293,-0.8271,-0.8276,-0.8276,-0.8283,-0.8285,-0.8284,-0.8275,-0.8273,-0.8284,-0.8286,-0.8288,-0.8325,-0.8289,-0.829,-0.8291,-0.8368,-0.837,-0.8371,0,0,0,0,0,0,-0.8268,-0.827,-0.8293,-0.8281,-0.8283,-0.8278,-0.8285,-0.8284,-0.8288,-0.8285,-0.8284,-0.8281,-0.8283,-0.8286,-0.8308,-0.8325,-0.8291,-0.8292,-0.8367,-0.8369,-0.8371,-0.84,0,0,0,0,0,0,-0.8267,-0.827,-0.8281,-0.8281,-0.8284,-0.8312,-0.8286,-0.8285,-0.829,-0.8287,-0.829,-0.8289,-0.8283,-0.8306,-0.8309,-0.8327,-0.8293,-0.8365,-0.8368,-0.837,-0.8398,-0.8403,-0.8408,0,0,0,0,0,-0.8266,-0.829,-0.8282,-0.8285,-0.8298,-0.8313,-0.8314,-0.8306,-0.8292,-0.8303,-0.8302,-0.8289,-0.8323,-0.8308,-0.8312,-0.833,-0.8364,-0.8367,-0.837,-0.8396,-0.8402,-0.8407,0,0,0,0,0,0,-0.8293,-0.829,-0.8281,-0.8306,-0.831,-0.8308,-0.8323,-0.8313,-0.8321,-0.8318,-0.8308,-0.8309,-0.8333,-0.8334,-0.8317,-0.8361,-0.8341,-0.8345,-0.836,-0.8366,-0.8371,-0.837,-0.8294,0,0,0,0,0,-0.8302,-0.8313,-0.831,-0.8332,-0.8335,-0.8329,-0.8335,-0.8328,-0.8332,-0.8333,-0.8333,-0.8338,-0.835,-0.8358,-0.8368,-0.8398,-0.8399,-0.8412,-0.8417,-0.8421,-0.8425,-0.8441,-0.8448,-0.838,-0.838,-0.838,0,0,-0.832,-0.832,-0.8328,-0.8338,-0.834,-0.8353,-0.833,-0.8345,-0.8355,-0.8336,-0.8356,-0.8357,-0.8362,-0.8388,-0.8399,-0.8389,-0.8443,-0.8425,-0.8428,-0.8429,-0.8445,-0.8451,-0.8457,-0.8382,-0.8382,-0.8382,0,0,-0.836,-0.8361,-0.838,-0.8383,-0.8386,-0.8382,-0.8387,-0.8387,-0.8386,-0.8407,-0.8393,-0.8406,-0.8426,-0.843,-0.8435,-0.8478,-0.8467,-0.8482,-0.8508,-0.8524,-0.8529,-0.8534,-0.855,-0.8556,-0.8485,-0.8485,-0.8486,0,-0.8383,-0.8402,-0.8391,-0.8407,-0.8412,-0.8395,-0.8415,-0.8418,-0.8425,-0.843,-0.8418,-0.8444,-0.8446,-0.8474,-0.8484,-0.8489,-0.8494,-0.8482,-0.8529,-0.8534,-0.8538,-0.8553,-0.8559,-0.8487,-0.8487,-0.8487,-0.8487,0,-0.843,-0.8443,-0.8458,-0.8465,-0.8472,-0.8489,-0.8483,-0.8491,-0.8484,-0.8482,-0.8503,-0.8505,-0.8517,-0.8523,-0.8516,-0.855,-0.8543,-0.8531,-0.851,-0.8546,-0.8561,-0.8566,-0.849,-0.8489,-0.8489,-0.8488,0,0,-0.8487,-0.8488,-0.8494,-0.8497,-0.85,-0.851,-0.8528,-0.8538,-0.8546,-0.8552,-0.8567,-0.8585,-0.8574,-0.858,-0.8573,-0.8588,-0.8623,-0.8573,-0.8573,-0.8583,-0.8661,-0.8671,-0.8678,-0.8616,-0.8617,-0.8618,-0.8661,0,-0.8527,-0.8556,-0.8548,-0.8577,-0.859,-0.8575,-0.859,-0.8594,-0.8593,-0.8604,-0.8603,-0.8616,-0.8599,-0.8603,-0.8616,-0.8616,-0.8638,-0.8612,-0.8631,-0.8632,-0.863,-0.8685,-0.8695,-0.8736,-0.8666,-0.8667,-0.8668,0,-0.8578,-0.8585,-0.8616,-0.8617,-0.8622,-0.8636,-0.8646,-0.8656,-0.8661,-0.8659,-0.8666,-0.8657,-0.8675,-0.8655,-0.8681,-0.8664,-0.8671,-0.8672,-0.8673,-0.8675,-0.8652,-0.8689,-0.8749,-0.8755,-0.8677,-0.8676,-0.8675,0,-0.8618,-0.8635,-0.8656,-0.8659,-0.8661,-0.8671,-0.8673,-0.8677,-0.8684,-0.8692,-0.8697,-0.8708,-0.8714,-0.8723,-0.8718,-0.8703,-0.8745,-0.8724,-0.8745,-0.8745,-0.8755,-0.8754,-0.8817,-0.8759,-0.8759,-0.8759,-0.8759,0,-0.8664,-0.8683,-0.8674,-0.8687,-0.8709,-0.8699,-0.8722,-0.8721,-0.8725,-0.8739,-0.8726,-0.8739,-0.8731,-0.8744,-0.874,-0.8763,-0.8766,-0.8766,-0.8764,-0.8767,-0.8767,-0.8772,-0.8769,-0.876,-0.876,-0.876,-0.8759,0,-0.8712,-0.8706,-0.8728,-0.8728,-0.8728,-0.8745,-0.8745,-0.8758,-0.8756,-0.8773,-0.8777,-0.8773,-0.8788,-0.8784,-0.88,-0.8797,-0.8826,-0.8821,-0.8824,-0.8823,-0.8845,-0.8843,-0.8913,-0.8922,-0.8857,-0.8858,-0.8858,0,-0.8741,-0.8756,-0.8758,-0.8766,-0.8768,-0.878,-0.8787,-0.8779,-0.8787,-0.8795,-0.8807,-0.882,-0.883,-0.8855,-0.8854,-0.8867,-0.8862,-0.8886,-0.8864,-0.8867,-0.8864,-0.8863,-0.8865,-0.8891,-0.8891,-0.8892,-0.8892,0,-0.8795,-0.8792,-0.8802,-0.8812,-0.882,-0.8827,-0.8834,-0.8841,-0.8833,-0.8843,-0.8858,-0.8866,-0.8882,-0.8896,-0.8907,-0.891,-0.8901,-0.8899,-0.8905,-0.8908,-0.8909,-0.891,-0.8837,-0.8898,-0.8897,-0.8897,-0.8897,-0.8896,-0.8836,-0.8848,-0.8852,-0.8864,-0.8867,-0.8874,-0.8886,-0.8885,-0.8896,-0.8908,-0.8903,-0.892,-0.8926,-0.894,-0.8944,-0.8958,-0.895,-0.8957,-0.896,-0.8962,-0.8965,-0.8907,-0.8961,-0.896,-0.896,-0.896,-0.896,0,-0.889,-0.8891,-0.8902,-0.8911,-0.8921,-0.891,-0.8917,-0.8926,-0.8941,-0.8946,-0.8956,-0.8974,-0.8987,-0.8988,-0.9001,-0.9013,-0.9009,-0.9016,-0.9016,-0.9017,-0.8972,-0.8966,-0.9019,-0.9019,-0.9019,-0.9019,-0.9019,-0.9019,-0.8919,-0.894,-0.8937,-0.896,-0.8962,-0.8977,-0.8982,-0.8989,-0.8993,-0.9012,-0.9023,-0.9024,-0.9028,-0.9041,-0.9054,-0.9054,-0.906,-0.9069,-0.9068,-0.9026,-0.902,-0.9014,-0.9009,-0.907,-0.9071,-0.9112,-0.9112,-0.9113]},{"header":{"parameterUnit":"m.s-1","parameterCategory":1,"la1":30.2991,"la2":30.254,"lo1":-89.0895,"lo2":-89.0444,"dy":0.0017,"dx":0.0017,"nx":28,"ny":28,"refTime":"2024-04-17T21:00:00:Z","depth":0,"parameterNumber":3,"parameterNumberName":"V-component_of_WINDS"},"data":[0,0,0,0,0,0,0,0,0,0,0,0,0,0,0,0,0,0,0,0,0,0,0,0,0,0,0,0,0,0,0,0,0,0,0,0,0,0,0,0,0,0,0,0,0,0,0,0,0,0,0,0,0,0,0,0,0,0,2.5691,2.5691,0,2.5697,2.5697,2.5697,2.568,2.568,2.5679,2.5679,2.5684,2.5685,2.5685,0,0,0,0,0,0,0,0,0,0,0,0,0,2.5665,2.5665,2.5691,2.5691,2.5691,2.5697,2.5697,2.5697,2.568,2.568,2.5679,2.5679,2.5684,2.5684,2.5685,0,0,0,0,0,0,0,0,0,0,0,0,0,2.5674,2.5666,2.5691,2.5684,2.5683,2.5697,2.5697,2.5697,2.5681,2.568,2.5679,2.5678,2.5683,2.5684,2.5685,2.5706,0,0,2.5688,2.5688,0,0,0,0,0,0,0,0,2.5673,2.5675,2.5685,2.5684,2.5683,2.5687,2.5689,2.57,2.5681,2.5681,2.5679,2.5678,2.5686,2.5686,2.5689,2.5706,2.5707,2.5688,2.5689,2.5689,2.5689,0,0,0,0,0,0,0,2.5673,2.5675,2.5693,2.5685,2.5684,2.568,2.568,2.5691,2.5688,2.5681,2.568,2.5681,2.5685,2.5688,2.5689,2.5707,2.5688,2.5689,2.5689,2.569,2.5741,2.5742,0,0,0,0,0,0,2.5673,2.5674,2.5693,2.5693,2.5677,2.5681,2.5681,2.5687,2.5687,2.5687,2.5682,2.568,2.5687,2.5688,2.5689,2.5713,2.5689,2.569,2.569,2.574,2.5741,2.5742,0,0,0,0,0,0,2.5673,2.5675,2.5693,2.5683,2.5685,2.5682,2.5688,2.5687,2.569,2.5688,2.5687,2.5686,2.5686,2.5688,2.5702,2.5713,2.569,2.5691,2.5739,2.5741,2.5742,2.5762,0,0,0,0,0,0,2.5672,2.5675,2.5683,2.5684,2.5686,2.5706,2.5689,2.5688,2.5692,2.569,2.5691,2.5691,2.5686,2.5701,2.5703,2.5714,2.5692,2.5738,2.574,2.5741,2.576,2.5764,2.5767,0,0,0,0,0,2.5671,2.5688,2.5684,2.5686,2.5696,2.5707,2.5708,2.5702,2.5693,2.5701,2.5699,2.5691,2.5712,2.5702,2.5705,2.5716,2.5738,2.574,2.5741,2.5759,2.5763,2.5767,0,0,0,0,0,0,2.5689,2.5688,2.5683,2.5701,2.5704,2.5704,2.5713,2.5707,2.5712,2.571,2.5703,2.5703,2.5719,2.5719,2.5708,2.5736,2.5723,2.5725,2.5736,2.5739,2.5743,2.5742,2.5693,0,0,0,0,0,2.5695,2.5704,2.5703,2.5719,2.572,2.5717,2.5721,2.5717,2.5719,2.572,2.572,2.5723,2.573,2.5735,2.5741,2.576,2.576,2.5769,2.5773,2.5775,2.5777,2.5787,2.5791,2.5748,2.5748,2.5748,0,0,2.5707,2.5708,2.5714,2.5722,2.5724,2.5733,2.5718,2.5728,2.5735,2.5722,2.5735,2.5735,2.5738,2.5754,2.5762,2.5755,2.5789,2.5778,2.578,2.578,2.5789,2.5793,2.5797,2.575,2.5749,2.5749,0,0,2.5734,2.5736,2.5749,2.5751,2.5754,2.5752,2.5755,2.5756,2.5756,2.5769,2.576,2.5767,2.578,2.5782,2.5785,2.5813,2.5805,2.5815,2.5832,2.5841,2.5845,2.5848,2.5857,2.5861,2.5817,2.5818,2.5818,0,2.5749,2.5762,2.5757,2.5768,2.5771,2.5761,2.5774,2.5776,2.5781,2.5784,2.5777,2.5792,2.5793,2.581,2.5817,2.582,2.5823,2.5815,2.5845,2.5848,2.585,2.5859,2.5863,2.5819,2.5819,2.5818,2.5818,0,2.578,2.579,2.58,2.5806,2.5811,2.5823,2.5818,2.5824,2.5819,2.5818,2.5831,2.5832,2.5839,2.5842,2.5838,2.5859,2.5854,2.5846,2.5832,2.5856,2.5864,2.5868,2.582,2.582,2.582,2.5819,0,0,2.5818,2.582,2.5824,2.5826,2.5829,2.5836,2.5848,2.5854,2.5859,2.5863,2.5872,2.5883,2.5876,2.5879,2.5874,2.5883,2.5905,2.5874,2.5873,2.5879,2.5927,2.5933,2.5937,2.59,2.5901,2.5901,2.5927,0,2.5844,2.5864,2.586,2.5879,2.5888,2.5878,2.5888,2.589,2.5889,2.5896,2.5895,2.5903,2.5892,2.5894,2.5902,2.59,2.5914,2.5899,2.5908,2.5908,2.5907,2.5942,2.5948,2.5973,2.593,2.5931,2.5931,0,2.5878,2.5883,2.5904,2.5905,2.5908,2.5917,2.5923,2.593,2.5933,2.5931,2.5935,2.5929,2.594,2.5927,2.5942,2.5931,2.5935,2.5935,2.5935,2.5936,2.5921,2.5943,2.598,2.5984,2.5937,2.5936,2.5936,0,2.5902,2.5915,2.5929,2.5931,2.5933,2.594,2.5941,2.5943,2.5947,2.5952,2.5954,2.5961,2.5964,2.5969,2.5964,2.5955,2.598,2.5966,2.5978,2.5979,2.5984,2.5983,2.6022,2.5987,2.5987,2.5987,2.5987,0,2.5932,2.5945,2.594,2.5948,2.5962,2.5957,2.5971,2.5971,2.5973,2.5981,2.5973,2.598,2.5974,2.5981,2.5978,2.5991,2.5992,2.5991,2.599,2.5992,2.5992,2.5993,2.5991,2.5988,2.5987,2.5987,2.5987,0,2.5962,2.5959,2.5974,2.5974,2.5975,2.5985,2.5986,2.5993,2.5992,2.6002,2.6004,2.6001,2.6009,2.6006,2.6014,2.6012,2.6028,2.6025,2.6027,2.6026,2.6038,2.6037,2.6079,2.6084,2.6046,2.6047,2.6047,0,2.5981,2.599,2.5992,2.5997,2.5999,2.6007,2.6011,2.6006,2.6011,2.6015,2.6022,2.603,2.6035,2.6048,2.6047,2.6053,2.605,2.6064,2.6051,2.6052,2.6049,2.6049,2.6049,2.6067,2.6067,2.6067,2.6068,0,2.6014,2.6012,2.6019,2.6025,2.6031,2.6036,2.604,2.6044,2.6039,2.6045,2.6053,2.6058,2.6066,2.6073,2.6079,2.608,2.6073,2.6072,2.6075,2.6077,2.6077,2.6077,2.6034,2.6071,2.6071,2.607,2.607,2.607,2.6039,2.6047,2.6049,2.6057,2.606,2.6064,2.6071,2.607,2.6077,2.6084,2.608,2.609,2.6092,2.6099,2.6101,2.6108,2.6102,2.6107,2.6108,2.6109,2.611,2.6077,2.6109,2.6109,2.6109,2.6109,2.6109,0,2.6071,2.6073,2.608,2.6086,2.6092,2.6085,2.6089,2.6095,2.6103,2.6106,2.6112,2.6121,2.6128,2.6128,2.6134,2.614,2.6137,2.6142,2.6141,2.6141,2.6115,2.6112,2.6144,2.6144,2.6144,2.6144,2.6144,2.6144,2.6089,2.6102,2.6101,2.6115,2.6116,2.6126,2.6128,2.6132,2.6134,2.6145,2.6151,2.6151,2.6152,2.6158,2.6165,2.6164,2.6167,2.6172,2.6171,2.6146,2.6143,2.614,2.6136,2.6173,2.6173,2.6196,2.6196,2.6197]}]]